Simultaneous Nadir Overpasses (SNOs) Predictions

Prediction of SNOs between NOAA-20 and LANDSAT-8 Satellite Orbit:

Table of predicted SNOs for the next 14.0 days since TLE Epoch: 11/10/2018
Index Date (NOAA-20) Time (NOAA-20) Lat,Lon (NOAA-20) SZA (NOAA-20 ) Date (LANDSAT-8) Time (LANDSAT-8) Lat,Lon (LANDSAT-8) SZA (LANDSAT-8 ) Distance(km) Time Diff (sec)
1 11/10/2018 15:05:50 70.06, -50.26 87.19 11/10/2018 15:06:34 70.08, -50.24 87.22 2.59 44
2 11/10/2018 15:56:32 -69.98, 117.18 92.88 11/10/2018 15:56:04 -69.97, 117.24 92.89 2.52 28
3 11/13/2018 06:32:17 -71.03,-103.35 91.11 11/13/2018 06:33:23 -70.92,-100.76 91.23 94.74 66
4 11/13/2018 07:22:44 70.02, 65.58 87.88 11/13/2018 07:23:04 70.05, 65.59 87.91 3.04 20
5 11/13/2018 08:13:26 -69.94,-126.98 92.20 11/13/2018 08:12:34 -69.94,-126.93 92.20 1.95 52
6 11/15/2018 22:48:55 -70.15, 13.84 91.31 11/15/2018 22:50:07 -70.12, 13.92 91.34 5.06 72
7 11/15/2018 23:39:38 69.98,-178.59 88.53 11/15/2018 23:39:34 70.01,-178.59 88.56 3.03 4
8 11/16/2018 00:30:18 -69.79, -10.98 91.65 11/16/2018 00:29:05 -69.85, -11.18 91.60 9.83 73
9 11/18/2018 15:05:47 -70.06, 129.76 90.75 11/18/2018 15:06:36 -70.08, 129.75 90.73 1.92 49
10 11/18/2018 15:56:31 69.94, -62.75 89.15 11/18/2018 15:56:03 69.96, -62.77 89.17 2.56 28
11 11/21/2018 06:32:16 71.00, 76.70 90.82 11/21/2018 06:33:22 70.90, 79.22 90.71 91.99 66
12 11/21/2018 07:22:41 -70.02,-114.40 90.17 11/21/2018 07:23:06 -70.03,-114.44 90.16 1.76 25
13 11/21/2018 08:13:25 69.91, 53.08 89.72 11/21/2018 08:12:33 69.92, 53.05 89.73 1.81 52
14 11/23/2018 22:48:54 70.13,-166.11 90.50 11/23/2018 22:50:05 70.14,-166.04 90.51 3.14 71
15 11/23/2018 23:39:35 -69.98, 1.43 89.64 11/23/2018 23:39:36 -69.98, 1.38 89.64 1.95 1
16 11/24/2018 00:30:17 69.76, 169.06 90.15 11/24/2018 00:29:04 69.81, 168.78 90.20 12.03 73




NCC Satellite Simultaneous Nadir Overpasses (SNOs) Prediction Service
